Location: Ertinghausen
(51.6624°N, 9.7874°E)
Time: 10:54:52
(UTC+00:00)

EXPRESS MD2 - Pass Details

Date: 23 May 2024
Orbit: 262 x 3328 km, 49.9° (Epoch: 24 June)

Event Time Altitude Azimuth Distance (km) Brightness Sun altitude
Exits shadow 01:31:07 19° 184° (S) 1,008 4.1 -12.0°
Maximum altitude 01:32:26 26° 144° (SE) 914 4.2 -11.9°
Drops below altitude 10° 01:36:00 10° 87° (E) 2,007 6.7 -11.6°
Sets 01:39:24 0° 76° (ENE) 3,418 8.1 -11.3°
